sat.trackr.live / text

‹ back to catalog

STARLINK-32653

NORAD 62199 · 2024-229H

PAYLOAD ACTIVE UNKNOWN

§ Identity

Operator
Country
US
Launch date
2024-12-04
Launch site
AFETR
Launch vehicle
Mass (kg)
RCS (m²)

Purposes: comms

External: N2YO · Heavens-Above · Gunter

§ Orbital elements

Epoch: 2026-09-21T06:46:31.213344Z

Period
94.27 min
Inclination
42.9994°
Eccentricity
0.0001709
Mean motion
15.27565801 rev/d
Perigee alt
481.9 km
Apogee alt
484.3 km
Semi-major
6,861.2 km
B*
6.1191e-4
RAAN
239.2377°
Arg perigee
250.6859°
Mean anomaly
109.3808°
Rev number
10,055

§ Raw data

STARLINK-326531 62199U 24229H   26264.28230571  .00016607  00000+0  61191-3 0  99942 62199  42.9994 239.2377 0001709 250.6859 109.3808 15.27565801100551

JSON: /api/v1/satellites/62199 · /tle

For live sub-satellite position, see the globe view (requires WebGL).

§ Visibility from observer

Set your observer location to see the next 7 days of passes ≥ 10°. The values pass through the URL so the page stays shareable.

No JS? Fill the form by hand. The geolocation button needs JavaScript.